Project,Study,Ord_Occ,Event_Num,Cast_ID,Date_Time_UTC,Date_Time_PST,Lat_Dec,Lon_Dec,Sta_ID,Line,Sta,Depth,Pressure,PrQ,Temp1,Temp1Q,Temp2,Temp2Q,TempAve,Salt1,Salt1Q,Salt1_Corr,Salt2,Salt2Q,Salt2_Corr,SaltAve_Corr,Ox1,Ox1Q,Ox1_CruiseCorr,Ox1_StaCorr,Ox2,Ox2Q,Ox2_CruiseCorr,Ox2_StaCorr,OxAve_StaCorr,Ox1uM,Ox1uM_CruiseCorr,Ox1uM_StaCorr,Ox2uM,Ox2uM_CruiseCorr,Ox2uM_StaCorr,OxAveuM_StaCorr,FluorV,FluorQ,EstChl_CruiseCorr,EstChl_StaCorr,ISUSV,ISUSQ,EstNO3_CruiseCorr,EstNO3_StaCorr,SigThetaTS1,SigThetaTS1Q,SigThetaTS2,SigThetaTS2Q,BAT,XMiss,TransQ,pH,pHQ,SPAR,SPARQ,PAR,PARQ,PoT1,PoT2,DynHt,SVA,OxSat1,OxSat2,BTL_Depth,BTL_Temp,SaltB,OxB,OxBuM,Chl-a,Phaeo,NO3,NO2,NH4,PO4,SIL
CalCOFI,2105SH,037,,2105_037d,12-May-2021 16:23:26,12-May-2021 08:23:26,34.14839,-121.15111,080.0 060.0,080.0,060.0,4.000,4.029,,13.2513,,13.2530,,13.2522,33.4627,,33.4639,33.4622,,33.4641,33.4640,5.7745,,6.1051,6.0965,5.8411,,6.1096,6.1015,6.0990,251.562,265.4817,252.8261,254.465,276.8162,252.4845,252.6553,0.1321,,0.7430,0.6431,2.5831,,5.3336,,25.1521,,25.1514,,,,,,,,,,,13.2508,13.2525,0.0061,280.404,96.991,98.113,4,13.257,33.4602,6.094,265.48,0.626,0.207,5.11,0.103,0.18,0.61,3.41
CalCOFI,2105SH,037,,2105_037d,12-May-2021 16:23:43,12-May-2021 08:23:43,34.14846,-121.15110,080.0 060.0,080.0,060.0,5.000,5.036,,13.2545,,13.2534,,13.2540,33.4626,,33.4638,33.4624,,33.4643,33.4641,5.7751,,6.1057,6.0971,5.8444,,6.1130,6.1049,6.1010,251.590,265.5110,252.8555,254.608,276.8464,252.6333,252.7444,0.1318,,0.7409,0.6412,2.5830,,5.3336,,25.1514,,25.1515,,,,,,,,,,,13.2538,13.2528,0.0137,280.502,97.008,98.170,,,,,,,,,,,,
CalCOFI,2105SH,037,,2105_037d,12-May-2021 16:23:45,12-May-2021 08:23:45,34.14846,-121.15108,080.0 060.0,080.0,060.0,6.000,6.043,,13.2579,,13.2585,,13.2582,33.4625,,33.4637,33.4622,,33.4641,33.4639,5.7899,,6.1212,6.1128,5.8419,,6.1104,6.1023,6.1076,252.235,266.1853,253.5340,254.496,277.5430,252.5168,253.0254,0.1308,,0.7339,0.6350,2.5828,,5.3336,,25.1507,,25.1503,,,,,,,,,,,13.2571,13.2577,0.0163,280.599,97.263,98.137,,,,,,,,,,,,
CalCOFI,2105SH,037,,2105_037d,12-May-2021 16:23:47,12-May-2021 08:23:47,34.14847,-121.15108,080.0 060.0,080.0,060.0,7.000,7.051,,13.2578,,13.2586,,13.2582,33.4625,,33.4637,33.4621,,33.4640,33.4639,5.7479,,6.0773,6.0684,5.8372,,6.1056,6.0974,6.0829,250.405,264.2722,251.6091,254.293,275.5666,252.3055,251.9573,0.1301,,0.7290,0.6307,2.5824,,5.3336,,25.1507,,25.1503,,,,,,,,,,,13.2569,13.2577,0.0191,280.619,96.558,98.059,,,,,,,,,,,,
CalCOFI,2105SH,037,,2105_037d,12-May-2021 16:23:49,12-May-2021 08:23:49,34.14848,-121.15108,080.0 060.0,080.0,060.0,8.000,8.058,,13.2587,,13.2591,,13.2589,33.4625,,33.4637,33.4620,,33.4639,33.4638,5.7565,,6.0862,6.0775,5.8356,,6.1039,6.0957,6.0866,250.779,264.6632,252.0025,254.224,275.9705,252.2337,252.1181,0.1303,,0.7304,0.6319,2.5819,,5.3336,,25.1506,,25.1501,,,,,,,,,,,13.2576,13.2580,0.0219,280.661,96.704,98.033,,,,,,,,,,,,
CalCOFI,2105SH,037,,2105_037d,12-May-2021 16:23:51,12-May-2021 08:23:51,34.14848,-121.15108,080.0 060.0,080.0,060.0,9.000,9.065,,13.2582,,13.2602,,13.2592,33.4624,,33.4636,33.4619,,33.4638,33.4637,5.7666,,6.0968,6.0881,5.8198,,6.0875,6.0792,6.0837,251.216,265.1200,252.4621,253.536,276.4425,251.5178,251.9900,0.1367,,0.7753,0.6715,2.5807,,5.3336,,25.1506,,25.1499,,,,,,,,,,,13.2570,13.2590,0.0248,280.686,96.871,97.769,,,,,,,,,,,,
CalCOFI,2105SH,037,,2105_037d,12-May-2021 16:23:53,12-May-2021 08:23:53,34.14848,-121.15108,080.0 060.0,080.0,060.0,10.000,10.072,,13.2403,,13.2382,,13.2393,33.4651,,33.4663,33.4630,,33.4649,33.4656,5.7360,,6.0648,6.0558,5.8119,,6.0794,6.0709,6.0634,249.883,263.7265,251.0600,253.190,275.0028,251.1578,251.1089,0.1304,,0.7311,0.6325,2.5792,,5.3336,,25.1564,,25.1551,,,,,,,,,,,13.2390,13.2369,0.0276,280.167,96.324,97.593,,,,,,,,,,,,
CalCOFI,2105SH,037,,2105_037d,12-May-2021 16:23:54,12-May-2021 08:23:54,34.14848,-121.15108,080.0 060.0,080.0,060.0,11.000,11.079,,13.1506,,13.1493,,13.1500,33.4742,,33.4754,33.4690,,33.4709,33.4732,5.7398,,6.0688,6.0598,5.8287,,6.0968,6.0885,6.0742,250.042,263.8927,251.2273,253.915,275.1746,251.9122,251.5698,0.1326,,0.7465,0.6461,2.5782,,5.3336,,25.1814,,25.1775,,,,,,,,,,,13.1491,13.1478,0.0304,277.813,96.215,97.700,,,,,,,,,,,,
CalCOFI,2105SH,037,,2105_037d,12-May-2021 16:23:56,12-May-2021 08:23:56,34.14850,-121.15107,080.0 060.0,080.0,060.0,12.000,12.087,,13.0963,,13.0979,,13.0971,33.4741,,33.4753,33.4709,,33.4728,33.4741,5.7561,,6.0858,6.0771,5.8316,,6.0998,6.0915,6.0843,250.751,264.6339,251.9730,254.039,275.9403,252.0412,252.0071,0.1418,,0.8109,0.7031,2.5767,,5.3336,,25.1921,,25.1893,,,,,,,,,,,13.0947,13.0963,0.0332,276.817,96.381,97.646,12,13.068,,,265.16,0.812,0.277,6.22,0.110,0.25,0.68,3.97
CalCOFI,2105SH,037,,2105_037d,12-May-2021 16:23:59,12-May-2021 08:23:59,34.14850,-121.15106,080.0 060.0,080.0,060.0,13.000,13.094,,13.0338,,13.0387,,13.0363,33.4729,,33.4741,33.4694,,33.4713,33.4727,5.7685,,6.0988,6.0901,5.8353,,6.1036,6.0954,6.0928,251.289,265.1963,252.5389,254.199,276.5213,252.2077,252.3733,0.1580,,0.9232,0.8033,2.5736,,5.3336,,25.2036,,25.1999,,,,,,,,,,,13.0321,13.0370,0.0360,275.748,96.464,97.589,,,,,,,,,,,,
CalCOFI,2105SH,037,,2105_037d,12-May-2021 16:24:00,12-May-2021 08:24:00,34.14850,-121.15106,080.0 060.0,080.0,060.0,14.000,14.101,,12.9840,,12.9844,,12.9842,33.4721,,33.4733,33.4690,,33.4709,33.4721,5.7769,,6.1076,6.0990,5.8334,,6.1016,6.0934,6.0962,251.650,265.5737,252.9186,254.113,276.9112,252.1182,252.5184,0.1636,,0.9618,0.8380,2.5721,,5.3336,,25.2129,,25.2104,,,,,,,,,,,12.9821,12.9825,0.0387,274.893,96.504,97.447,,,,,,,,,,,,
CalCOFI,2105SH,037,,2105_037d,12-May-2021 16:24:01,12-May-2021 08:24:01,34.14850,-121.15106,080.0 060.0,080.0,060.0,15.000,15.109,,12.9739,,12.9743,,12.9741,33.4716,,33.4728,33.4694,,33.4713,33.4721,5.7574,,6.0872,6.0784,5.8326,,6.1008,6.0926,6.0855,250.802,264.6872,252.0267,254.077,275.9954,252.0808,252.0538,0.1662,,0.9796,0.8541,2.5709,,5.3336,,25.2145,,25.2127,,,,,,,,,,,12.9719,12.9723,0.0415,274.763,96.159,97.413,,,,,,,,,,,,
CalCOFI,2105SH,037,,2105_037d,12-May-2021 16:24:03,12-May-2021 08:24:03,34.14852,-121.15106,080.0 060.0,080.0,060.0,16.000,16.116,,12.9651,,12.9658,,12.9655,33.4715,,33.4727,33.4696,,33.4715,33.4721,5.7587,,6.0885,6.0798,5.8260,,6.0940,6.0857,6.0828,250.858,264.7458,252.0856,253.788,276.0558,251.7800,251.9328,0.1856,,1.1117,0.9741,2.5689,,5.3336,,25.2162,,25.2146,,,,,,,,,,,12.9629,12.9636,0.0443,274.627,96.163,97.286,,,,,,,,,,,,
CalCOFI,2105SH,037,,2105_037d,12-May-2021 16:24:06,12-May-2021 08:24:06,34.14852,-121.15106,080.0 060.0,080.0,060.0,17.000,17.123,,12.9518,,12.9524,,12.9521,33.4720,,33.4732,33.4702,,33.4721,33.4727,5.7394,,6.0684,6.0594,5.8153,,6.0829,6.0744,6.0669,250.017,263.8666,251.2010,253.325,275.1476,251.2983,251.2497,0.1959,,1.1812,1.0378,2.5661,,5.3336,,25.2192,,25.2177,,,,,,,,,,,12.9495,12.9501,0.0470,274.368,95.815,97.082,,,,,,,,,,,,
CalCOFI,2105SH,037,,2105_037d,12-May-2021 16:24:07,12-May-2021 08:24:07,34.14853,-121.15104,080.0 060.0,080.0,060.0,18.000,18.130,,12.9421,,12.9427,,12.9424,33.4734,,33.4746,33.4718,,33.4737,33.4742,5.7460,,6.0753,6.0664,5.8100,,6.0774,6.0689,6.0677,250.304,264.1666,251.5029,253.092,275.4575,251.0558,251.2794,0.1857,,1.1124,0.9747,2.5638,,5.3336,,25.2223,,25.2209,,,,,,,,,,,12.9397,12.9402,0.0498,274.102,95.906,96.975,,,,,,,,,,,,
CalCOFI,2105SH,037,,2105_037d,12-May-2021 16:24:09,12-May-2021 08:24:09,34.14854,-121.15104,080.0 060.0,080.0,060.0,19.000,19.138,,12.9326,,12.9332,,12.9329,33.4748,,33.4760,33.4735,,33.4754,33.4757,5.7055,,6.0329,6.0236,5.8007,,6.0678,6.0592,6.0414,248.538,262.3204,249.6453,252.685,273.5502,250.6323,250.1388,0.1828,,1.0928,0.9568,2.5610,,5.3336,,25.2253,,25.2241,,,,,,,,,,,12.9300,12.9307,0.0526,273.846,95.212,96.801,,,,,,,,,,,,
CalCOFI,2105SH,037,,2105_037d,12-May-2021 16:24:11,12-May-2021 08:24:11,34.14854,-121.15104,080.0 060.0,080.0,060.0,20.000,20.145,,12.9262,,12.9267,,12.9265,33.4758,,33.4770,33.4747,,33.4766,33.4768,5.7221,,6.0503,6.0411,5.7922,,6.0590,6.0503,6.0457,249.263,263.0783,250.4079,252.316,274.3332,250.2483,250.3281,0.1981,,1.1959,1.0515,2.5582,,5.3336,,25.2273,,25.2264,,,,,,,,,,,12.9235,12.9240,0.0553,273.679,95.478,96.648,,,,,,,,,,,,
CalCOFI,2105SH,037,,2105_037d,12-May-2021 16:24:13,12-May-2021 08:24:13,34.14854,-121.15104,080.0 060.0,080.0,060.0,21.000,21.152,,12.9200,,12.9206,,12.9203,33.4771,,33.4783,33.4758,,33.4777,33.4780,5.6994,,6.0265,6.0172,5.7852,,6.0517,6.0429,6.0301,248.272,262.0423,249.3655,252.010,273.2630,249.9299,249.6477,0.2018,,1.2207,1.0744,2.5558,,5.3336,,25.2296,,25.2285,,,,,,,,,,,12.9172,12.9178,0.0581,273.490,95.087,96.519,,,,,,,,,,,,
CalCOFI,2105SH,037,,2105_037d,12-May-2021 16:24:14,12-May-2021 08:24:14,34.14856,-121.15104,080.0 060.0,080.0,060.0,22.000,22.160,,12.9103,,12.9105,,12.9104,33.4795,,33.4807,33.4782,,33.4801,33.4804,5.6890,,6.0157,6.0062,5.7845,,6.0510,6.0422,6.0242,247.816,261.5656,248.8859,251.979,272.7705,249.8976,249.3918,0.1894,,1.1374,0.9976,2.5536,,5.3336,,25.2334,,25.2323,,,,,,,,,,,12.9074,12.9075,0.0608,273.156,94.895,96.489,,,,,,,,,,,,
CalCOFI,2105SH,037,,2105_037d,12-May-2021 16:24:16,12-May-2021 08:24:16,34.14856,-121.15104,080.0 060.0,080.0,060.0,23.000,23.167,,12.9011,,12.9022,,12.9017,33.4813,,33.4825,33.4800,,33.4819,33.4822,5.7019,,6.0291,6.0198,5.7812,,6.0476,6.0387,6.0293,248.378,262.1532,249.4770,251.835,273.3774,249.7478,249.6124,0.2028,,1.2274,1.0805,2.5503,,5.3336,,25.2366,,25.2354,,,,,,,,,,,12.8980,12.8991,0.0636,272.877,95.094,96.418,,,,,,,,,,,,
CalCOFI,2105SH,037,,2105_037d,12-May-2021 16:24:19,12-May-2021 08:24:19,34.14856,-121.15104,080.0 060.0,080.0,060.0,24.000,24.174,,12.8970,,12.8977,,12.8974,33.4822,,33.4834,33.4812,,33.4831,33.4833,5.7190,,6.0470,6.0379,5.7802,,6.0465,6.0377,6.0378,249.124,262.9330,250.2617,251.791,274.1831,249.7020,249.9819,0.2271,,1.3883,1.2309,2.5468,,5.3336,,25.2382,,25.2373,,,,,,,,,,,12.8938,12.8945,0.0663,272.753,95.372,96.394,,,,,,,,,,,,
CalCOFI,2105SH,037,,2105_037d,12-May-2021 16:24:20,12-May-2021 08:24:20,34.14856,-121.15104,080.0 060.0,080.0,060.0,25.000,25.182,,12.8928,,12.8930,,12.8929,33.4832,,33.4844,33.4823,,33.4842,33.4843,5.7038,,6.0311,6.0218,5.7698,,6.0358,6.0268,6.0243,248.462,262.2410,249.5654,251.336,273.4682,249.2286,249.3970,0.1942,,1.1697,1.0273,2.5448,,5.3336,,25.2398,,25.2391,,,,,,,,,,,12.8895,12.8897,0.0691,272.624,95.111,96.211,,,,,,,,,,,,
CalCOFI,2105SH,037,,2105_037d,12-May-2021 16:24:22,12-May-2021 08:24:22,34.14858,-121.15104,080.0 060.0,080.0,060.0,26.000,26.189,,12.8802,,12.8811,,12.8807,33.4863,,33.4875,33.4850,,33.4869,33.4872,5.6980,,6.0251,6.0157,5.7636,,6.0293,6.0203,6.0180,248.206,261.9734,249.2961,251.064,273.1917,248.9455,249.1208,0.1934,,1.1644,1.0224,2.5422,,5.3336,,25.2447,,25.2435,,,,,,,,,,,12.8767,12.8776,0.0718,272.187,94.990,96.085,,,,,,,,,,,,
CalCOFI,2105SH,037,,2105_037d,12-May-2021 16:24:24,12-May-2021 08:24:24,34.14858,-121.15103,080.0 060.0,080.0,060.0,27.000,27.196,,12.8716,,12.8721,,12.8719,33.4882,,33.4894,33.4872,,33.4891,33.4893,5.6858,,6.0123,6.0028,5.7579,,6.0234,6.0143,6.0086,247.675,261.4182,248.7376,250.816,272.6182,248.6875,248.7126,0.1799,,1.0731,0.9388,2.5396,,5.3336,,25.2478,,25.2470,,,,,,,,,,,12.8680,12.8685,0.0746,271.913,94.772,95.974,,,,,,,,,,,,
CalCOFI,2105SH,037,,2105_037d,12-May-2021 16:24:26,12-May-2021 08:24:26,34.14858,-121.15102,080.0 060.0,080.0,060.0,28.000,28.203,,12.8675,,12.8680,,12.8678,33.4896,,33.4908,33.4887,,33.4906,33.4907,5.6938,,6.0207,6.0113,5.7545,,6.0199,6.0108,6.0111,248.024,261.7831,249.1047,250.666,272.9951,248.5314,248.8181,0.1768,,1.0520,0.9197,2.5374,,5.3336,,25.2498,,25.2490,,,,,,,,,,,12.8637,12.8642,0.0773,271.755,94.899,95.910,,,,,,,,,,,,
CalCOFI,2105SH,037,,2105_037d,12-May-2021 16:24:27,12-May-2021 08:24:27,34.14860,-121.15102,080.0 060.0,080.0,060.0,29.000,29.211,,12.8590,,12.8594,,12.8592,33.4944,,33.4956,33.4932,,33.4951,33.4954,5.6734,,5.9993,5.9897,5.7415,,6.0064,5.9971,5.9934,247.132,260.8506,248.1664,250.100,272.0317,247.9424,248.0544,0.1698,,1.0043,0.8763,2.5353,,5.3336,,25.2552,,25.2542,,,,,,,,,,,12.8551,12.8555,0.0800,271.268,94.544,95.679,,,,,,,,,,,,
CalCOFI,2105SH,037,,2105_037d,12-May-2021 16:24:29,12-May-2021 08:24:29,34.14860,-121.15102,080.0 060.0,080.0,060.0,30.000,30.218,,12.8307,,12.8311,,12.8309,33.4995,,33.5007,33.4978,,33.4997,33.5002,5.6660,,5.9916,5.9819,5.7413,,6.0062,5.9969,5.9894,246.807,260.5108,247.8246,250.090,271.6807,247.9320,247.8783,0.1788,,1.0656,0.9320,2.5331,,5.3336,,25.2648,,25.2634,,,,,,,,,,,12.8267,12.8270,0.0828,270.383,94.368,95.623,,,,,,,,,,,,
CalCOFI,2105SH,037,,2105_037d,12-May-2021 16:24:31,12-May-2021 08:24:31,34.14860,-121.15102,080.0 060.0,080.0,060.0,31.000,31.226,,12.8137,,12.8142,,12.8140,33.5020,,33.5032,33.5009,,33.5028,33.5030,5.6908,,6.0175,6.0081,5.7512,,6.0165,6.0073,6.0077,247.888,261.6409,248.9616,250.516,272.8482,248.3753,248.6685,0.1818,,1.0860,0.9506,2.5309,,5.3336,,25.2700,,25.2691,,,,,,,,,,,12.8096,12.8100,0.0855,269.907,94.750,95.755,,,,,,,,,,,,
CalCOFI,2105SH,037,,2105_037d,12-May-2021 16:24:33,12-May-2021 08:24:33,34.14860,-121.15102,080.0 060.0,080.0,060.0,32.000,32.233,,12.8085,,12.8090,,12.8088,33.5037,,33.5049,33.5027,,33.5046,33.5048,5.6872,,6.0138,6.0043,5.7567,,6.0222,6.0131,6.0087,247.729,261.4747,248.7944,250.756,272.6765,248.6250,248.7097,0.1705,,1.0091,0.8807,2.5291,,5.3336,,25.2724,,25.2716,,,,,,,,,,,12.8042,12.8047,0.0882,269.705,94.680,95.838,,,,,,,,,,,,
CalCOFI,2105SH,037,,2105_037d,12-May-2021 16:24:35,12-May-2021 08:24:35,34.14862,-121.15102,080.0 060.0,080.0,060.0,33.000,33.240,,12.8053,,12.8059,,12.8056,33.5047,,33.5059,33.5037,,33.5056,33.5058,5.6627,,5.9882,5.9784,5.7525,,6.0178,6.0087,5.9936,246.660,260.3572,247.6700,250.574,271.5220,248.4356,248.0528,0.1649,,0.9707,0.8460,2.5272,,5.3336,,25.2739,,25.2730,,,,,,,,,,,12.8009,12.8014,0.0909,269.594,94.266,95.763,33,12.577,,,256.24,0.736,0.396,5.91,0.107,0.41,0.68,3.56
CalCOFI,2105SH,037,,2105_037d,12-May-2021 16:24:37,12-May-2021 08:24:37,34.14862,-121.15102,080.0 060.0,080.0,060.0,34.000,34.248,,12.8000,,12.8004,,12.8002,33.5058,,33.5070,33.5050,,33.5069,33.5070,5.6695,,5.9953,5.9856,5.7351,,5.9998,5.9904,5.9880,246.957,260.6676,247.9824,249.815,271.8427,247.6458,247.8141,0.1708,,1.0111,0.8825,2.5240,,5.3336,,25.2758,,25.2751,,,,,,,,,,,12.7954,12.7958,0.0936,269.437,94.370,95.463,,,,,,,,,,,,
CalCOFI,2105SH,037,,2105_037d,12-May-2021 16:24:38,12-May-2021 08:24:38,34.14862,-121.15101,080.0 060.0,080.0,060.0,35.000,35.255,,12.7921,,12.7923,,12.7922,33.5078,,33.5090,33.5067,,33.5086,33.5088,5.6682,,5.9939,5.9842,5.7221,,5.9864,5.9768,5.9805,246.899,260.6070,247.9214,249.249,271.7801,247.0569,247.4892,0.1712,,1.0139,0.8850,2.5212,,5.3336,,25.2789,,25.2780,,,,,,,,,,,12.7874,12.7876,0.0964,269.168,94.334,95.232,,,,,,,,,,,,
CalCOFI,2105SH,037,,2105_037d,12-May-2021 16:24:40,12-May-2021 08:24:40,34.14863,-121.15100,080.0 060.0,080.0,060.0,36.000,36.262,,12.7714,,12.7716,,12.7715,33.5129,,33.5141,33.5112,,33.5131,33.5136,5.6677,,5.9934,5.9837,5.6997,,5.9631,5.9534,5.9686,246.878,260.5851,247.8993,248.270,271.7574,246.0382,246.9688,0.1630,,0.9577,0.8343,2.5176,,5.3336,,25.2869,,25.2856,,,,,,,,,,,12.7666,12.7667,0.0991,268.436,94.290,94.820,,,,,,,,,,,,
CalCOFI,2105SH,037,,2105_037d,12-May-2021 16:24:42,12-May-2021 08:24:42,34.14864,-121.15100,080.0 060.0,080.0,060.0,37.000,37.270,,12.7351,,12.7348,,12.7350,33.5203,,33.5215,33.5185,,33.5204,33.5210,5.5534,,5.8738,5.8630,5.5797,,5.8389,5.8277,5.8454,241.896,255.3769,242.6590,243.040,266.3769,240.5960,241.6275,0.1504,,0.8707,0.7563,2.5084,,5.3336,,25.2998,,25.2984,,,,,,,,,,,12.7301,12.7298,0.1018,267.230,92.323,92.758,,,,,,,,,,,,
CalCOFI,2105SH,037,,2105_037d,12-May-2021 16:24:44,12-May-2021 08:24:44,34.14864,-121.15100,080.0 060.0,080.0,060.0,38.000,38.277,,12.6144,,12.5994,,12.6069,33.5513,,33.5525,33.5459,,33.5478,33.5502,5.4975,,5.8154,5.8039,5.5761,,5.8351,5.8239,5.8139,239.447,252.8167,240.0831,242.871,263.7319,240.4201,240.2516,0.1282,,0.7156,0.6189,2.5015,,5.3336,,25.3474,,25.3461,,,,,,,,,,,12.6094,12.5943,0.1044,262.728,91.181,92.453,,,,,,,,,,,,
CalCOFI,2105SH,037,,2105_037d,12-May-2021 16:24:45,12-May-2021 08:24:45,34.14864,-121.15100,080.0 060.0,080.0,060.0,39.000,39.285,,12.5260,,12.5175,,12.5218,33.5705,,33.5717,33.5688,,33.5707,33.5712,5.4968,,5.8147,5.8032,5.5859,,5.8453,5.8342,5.8187,239.413,252.7812,240.0473,243.291,263.6952,240.8571,240.4522,0.1227,,0.6768,0.5849,2.4964,,5.3336,,25.3794,,25.3798,,,,,,,,,,,12.5208,12.5124,0.1071,259.698,91.015,92.472,,,,,,,,,,,,
CalCOFI,2105SH,037,,2105_037d,12-May-2021 16:24:47,12-May-2021 08:24:47,34.14866,-121.15099,080.0 060.0,080.0,060.0,40.000,40.292,,12.5124,,12.5177,,12.5151,33.5707,,33.5719,33.5669,,33.5688,33.5704,5.4914,,5.8090,5.7975,5.5697,,5.8285,5.8172,5.8074,239.174,252.5313,239.7959,242.586,263.4371,240.1236,239.9598,0.1338,,0.7549,0.6536,2.4831,,5.3336,,25.3822,,25.3783,,,,,,,,,,,12.5071,12.5124,0.1097,259.458,90.899,92.203,,,,,,,,,,,,
CalCOFI,2105SH,037,,2105_037d,12-May-2021 16:24:50,12-May-2021 08:24:50,34.14866,-121.15100,080.0 060.0,080.0,060.0,41.000,41.299,,12.4920,,12.4922,,12.4921,33.5769,,33.5781,33.5751,,33.5770,33.5776,5.5040,,5.8222,5.8108,5.5608,,5.8193,5.8079,5.8094,239.722,253.1042,240.3723,242.198,264.0289,239.7198,240.0461,0.1178,,0.6421,0.5546,2.4708,,5.3336,,25.3911,,25.3895,,,,,,,,,,,12.4866,12.4868,0.1123,258.645,91.073,92.012,,,,,,,,,,,,
CalCOFI,2105SH,037,,2105_037d,12-May-2021 16:24:51,12-May-2021 08:24:51,34.14866,-121.15098,080.0 060.0,080.0,060.0,42.000,42.307,,12.4936,,12.4934,,12.4935,33.5763,,33.5775,33.5751,,33.5770,33.5773,5.4902,,5.8078,5.7962,5.5613,,5.8198,5.8084,5.8023,239.121,252.4759,239.7402,242.219,263.3798,239.7417,239.7410,0.1265,,0.7036,0.6084,2.4665,,5.3336,,25.3902,,25.3894,,,,,,,,,,,12.4881,12.4878,0.1149,258.748,90.847,92.023,,,,,,,,,,,,
CalCOFI,2105SH,037,,2105_037d,12-May-2021 16:24:52,12-May-2021 08:24:52,34.14866,-121.15098,080.0 060.0,080.0,060.0,43.000,43.314,,12.4859,,12.4869,,12.4864,33.5786,,33.5798,33.5768,,33.5787,33.5793,5.4721,,5.7888,5.7771,5.5563,,5.8146,5.8031,5.7901,238.333,251.6521,238.9113,242.000,262.5288,239.5138,239.2126,0.1307,,0.7332,0.6344,2.4613,,5.3336,,25.3936,,25.3919,,,,,,,,,,,12.4803,12.4812,0.1175,258.459,90.535,91.928,,,,,,,,,,,,
CalCOFI,2105SH,037,,2105_037d,12-May-2021 16:24:55,12-May-2021 08:24:55,34.14868,-121.15098,080.0 060.0,080.0,060.0,44.000,44.322,,12.4766,,12.4777,,12.4772,33.5803,,33.5815,33.5789,,33.5808,33.5812,5.4565,,5.7725,5.7606,5.5607,,5.8192,5.8078,5.7842,237.650,250.9381,238.1929,242.189,261.7912,239.7104,238.9517,0.1334,,0.7521,0.6511,2.4500,,5.3336,,25.3967,,25.3954,,,,,,,,,,,12.4708,12.4719,0.1201,258.187,90.259,91.984,,,,,,,,,,,,
CalCOFI,2105SH,037,,2105_037d,12-May-2021 16:24:57,12-May-2021 08:24:57,34.14868,-121.15097,080.0 060.0,080.0,060.0,45.000,45.329,,12.4769,,12.4774,,12.4772,33.5806,,33.5818,33.5795,,33.5814,33.5816,5.4813,,5.7984,5.7868,5.5718,,5.8307,5.8194,5.8031,238.732,252.0692,239.3310,242.675,262.9597,240.2162,239.7736,0.1229,,0.6782,0.5861,2.4468,,5.3336,,25.3969,,25.3960,,,,,,,,,,,12.4709,12.4715,0.1227,258.194,90.671,92.168,,,,,,,,,,,,
CalCOFI,2105SH,037,,2105_037d,12-May-2021 16:24:59,12-May-2021 08:24:59,34.14868,-121.15096,080.0 060.0,080.0,060.0,46.000,46.336,,12.4963,,12.4971,,12.4967,33.5790,,33.5802,33.5793,,33.5812,33.5807,5.5155,,5.8342,5.8229,5.5643,,5.8229,5.8115,5.8172,240.220,253.6248,240.8961,242.346,264.5668,239.8738,240.3850,0.1354,,0.7662,0.6635,2.4455,,5.3336,,25.3920,,25.3920,,,,,,,,,,,12.4902,12.4910,0.1253,258.690,91.271,92.081,,,,,,,,,,,,
CalCOFI,2105SH,037,,2105_037d,12-May-2021 16:25:00,12-May-2021 08:25:00,34.14868,-121.15096,080.0 060.0,080.0,060.0,47.000,47.344,,12.5001,,12.5000,,12.5001,33.5794,,33.5806,33.5788,,33.5807,33.5807,5.5102,,5.8287,5.8173,5.5582,,5.8166,5.8051,5.8112,239.992,253.3864,240.6563,242.082,264.3205,239.5991,240.1277,0.1436,,0.8234,0.7142,2.4446,,5.3336,,25.3915,,25.3911,,,,,,,,,,,12.4939,12.4937,0.1279,258.761,91.192,91.985,,,,,,,,,,,,
CalCOFI,2105SH,037,,2105_037d,12-May-2021 16:25:01,12-May-2021 08:25:01,34.14869,-121.15096,080.0 060.0,080.0,060.0,48.000,48.351,,12.4994,,12.4994,,12.4994,33.5796,,33.5808,33.5792,,33.5811,33.5810,5.4864,,5.8038,5.7922,5.5580,,5.8164,5.8049,5.7986,238.953,252.3003,239.5635,242.076,263.1984,239.5928,239.5782,0.1269,,0.7064,0.6109,2.4439,,5.3336,,25.3919,,25.3916,,,,,,,,,,,12.4930,12.4931,0.1305,258.752,90.796,91.982,,,,,,,,,,,,
CalCOFI,2105SH,037,,2105_037d,12-May-2021 16:25:03,12-May-2021 08:25:03,34.14870,-121.15096,080.0 060.0,080.0,060.0,49.000,49.359,,12.4985,,12.4993,,12.4989,33.5796,,33.5808,33.5791,,33.5810,33.5809,5.4874,,5.8048,5.7933,5.5548,,5.8131,5.8016,5.7975,238.999,252.3484,239.6118,241.934,263.2481,239.4451,239.5285,0.1257,,0.6980,0.6035,2.4416,,5.3336,,25.3921,,25.3915,,,,,,,,,,,12.4920,12.4928,0.1332,258.760,90.812,91.928,,,,,,,,,,,,
CalCOFI,2105SH,037,,2105_037d,12-May-2021 16:25:07,12-May-2021 08:25:07,34.14870,-121.15096,080.0 060.0,080.0,060.0,50.000,50.366,,12.4982,,12.4984,,12.4983,33.5795,,33.5807,33.5791,,33.5810,33.5809,5.4145,,5.7286,5.7163,5.4755,,5.7309,5.7185,5.7174,235.821,249.0261,236.2691,238.481,259.8158,235.8520,236.0606,0.1367,,0.7753,0.6715,2.4359,,5.3336,,25.3921,,25.3917,,,,,,,,,,,12.4915,12.4918,0.1361,258.784,89.604,90.615,,,,,,,,,,,,
CalCOFI,2105SH,037,,2105_037d,12-May-2021 16:25:08,12-May-2021 08:25:08,34.14870,-121.15096,080.0 060.0,080.0,060.0,51.000,51.374,,12.4678,,12.4673,,12.4676,33.5895,,33.5907,33.5868,,33.5887,33.5897,5.3917,,5.7047,5.6922,5.4457,,5.7001,5.6873,5.6898,234.828,247.9880,235.2246,237.178,258.7434,234.4961,234.8604,0.1270,,0.7072,0.6115,2.4336,,5.3336,,25.4057,,25.4037,,,,,,,,,,,12.4611,12.4606,0.1386,257.510,89.177,90.067,,,,,,,,,,,,
CalCOFI,2105SH,037,,2105_037d,12-May-2021 16:25:09,12-May-2021 08:25:09,34.14870,-121.15094,080.0 060.0,080.0,060.0,52.000,52.381,,12.4133,,12.4201,,12.4167,33.6054,,33.6066,33.5986,,33.6005,33.6036,5.3823,,5.6949,5.6822,5.4389,,5.6930,5.6802,5.6812,234.412,247.5531,234.7871,236.880,258.2941,234.1860,234.4866,0.1167,,0.6343,0.5478,2.4310,,5.3336,,25.4286,,25.4220,,,,,,,,,,,12.4065,12.4133,0.1412,255.362,88.929,89.873,52,12.296,,,247.02,0.587,0.349,10.13,0.148,1.04,1.02,7.56
CalCOFI,2105SH,037,,2105_037d,12-May-2021 16:25:10,12-May-2021 08:25:10,34.14870,-121.15094,080.0 060.0,080.0,060.0,53.000,53.388,,12.3119,,12.3112,,12.3116,33.6302,,33.6314,33.6253,,33.6272,33.6293,5.3879,,5.7008,5.6882,5.4420,,5.6962,5.6834,5.6858,234.650,247.8019,235.0374,237.005,258.5512,234.3161,234.6768,0.1181,,0.6443,0.5564,2.4275,,5.3336,,25.4673,,25.4636,,,,,,,,,,,12.3049,12.3042,0.1438,251.694,88.848,89.735,,,,,,,,,,,,
CalCOFI,2105SH,037,,2105_037d,12-May-2021 16:25:12,12-May-2021 08:25:12,34.14872,-121.15094,080.0 060.0,080.0,060.0,54.000,54.396,,12.2833,,12.2838,,12.2836,33.6354,,33.6366,33.6330,,33.6349,33.6358,5.3746,,5.6869,5.6741,5.4375,,5.6916,5.6787,5.6764,234.067,247.1924,234.4242,236.807,257.9215,234.1101,234.2672,0.1234,,0.6818,0.5892,2.4181,,5.3336,,25.4768,,25.4748,,,,,,,,,,,12.2762,12.2767,0.1463,250.816,88.578,89.614,,,,,,,,,,,,
CalCOFI,2105SH,037,,2105_037d,12-May-2021 16:25:15,12-May-2021 08:25:15,34.14872,-121.15092,080.0 060.0,080.0,060.0,55.000,55.403,,12.2721,,12.2736,,12.2729,33.6383,,33.6395,33.6366,,33.6385,33.6390,5.3197,,5.6294,5.6161,5.3901,,5.6425,5.6291,5.6226,231.676,244.6929,231.9092,234.741,255.3392,231.9603,231.9348,0.1083,,0.5746,0.4958,2.4010,,5.3336,,25.4813,,25.4797,,,,,,,,,,,12.2650,12.2664,0.1488,250.416,87.655,88.816,,,,,,,,,,,,
CalCOFI,2105SH,037,,2105_037d,12-May-2021 16:25:18,12-May-2021 08:25:18,34.14872,-121.15092,080.0 060.0,080.0,060.0,56.000,56.411,,12.2072,,12.2131,,12.2102,33.6538,,33.6550,33.6494,,33.6513,33.6532,5.3048,,5.6139,5.6004,5.3308,,5.5810,5.5669,5.5837,231.019,244.0061,231.2182,232.154,254.6297,229.2683,230.2433,0.1100,,0.5867,0.5063,2.3839,,5.3336,,25.5057,,25.5011,,,,,,,,,,,12.1999,12.2058,0.1513,248.117,87.298,87.735,,,,,,,,,,,,